SES-10

Last updated on Wed Oct 29 2025 00:02:49 GMT+0000 (Coordinated Universal Time)

1 42432U 17017A 25301.38746884 -.00000262 00000+0 00000+0 0 9999 2 42432 0.0536 67.6918 0002247 148.1099 253.8014 1.00269946 31425
UTC large
Height (km)
Speed (km/s)
/
Latitude / Longitude
Inclination (degrees)
Orbital Period (minutes)
Azimuth
Elevation
Range (km)
Doppler Factor

Next 0 passes for location: London (51.5072 / 0.1276)

Sorry there are no passes over London.